This demonstration page uses our WeatherBlox Daily Observations layout. Learn more.

Left ArrowRight Arrow

Hourly Observations for October 18, 2021

Temp ( °F °C ) Dew Point ( °F °C ) Humidity (%) Winds ( mph kmh ) Pressure ( in mb ) Visibility ( mi km ) Precip ( " mm )
12:53 am 00:53 Clear 59 15 33 0.6 38 38 SE 12 19 30.02 1017 10 16 0.00 0.00
1:53 am 01:53 Clear 58 14.4 33 0.6 39 39 SE 12 19 29.99 1016 10 16 0.00 0.00
2:53 am 02:53 Clear 57 13.9 33 0.6 41 41 SE 12 19 29.97 1015 10 16 0.00 0.00
3:53 am 03:53 Clear 57 13.9 34 1.1 42 42 SE 9 15 29.95 1014 10 16 0.00 0.00
4:53 am 04:53 Clear 56 13.3 34 1.1 44 44 SE 9 15 29.93 1013 10 16 0.00 0.00
5:53 am 05:53 Clear 56 13.3 34 1.1 44 44 ESE 12 19 29.92 1013 10 16 0.00 0.00
6:53 am 06:53 Clear 55 12.8 34 1.1 45 45 SE 9 15 29.92 1013 10 16 0.00 0.00
7:53 am 07:53 Clear 55 12.8 34 1.1 45 45 SE 9 15 29.93 1013 10 16 0.00 0.00
8:53 am 08:53 Sunny 56 13.3 34 1.1 44 44 SE 10 17 29.94 1014 10 16 0.00 0.00
9:53 am 09:53 Sunny 59 15 35 1.7 41 41 SE 13 20 29.94 1014 10 16 0.00 0.00
10:53 am 10:53 Sunny 64 17.8 36 2.2 35 35 SE 10 17 29.94 1014 10 16 0.00 0.00
11:53 am 11:53 Sunny 70 21.1 37 2.8 30 30 SE 9 15 29.93 1013 10 16 0.00 0.00
12:53 pm 12:53 Sunny 74 23.3 38 3.3 27 27 SE 10 17 29.90 1012 10 16 0.00 0.00
1:53 pm 13:53 Sunny 76 24.4 39 3.9 26 26 SE 12 19 29.86 1011 10 16 0.00 0.00
2:53 pm 14:53 Sunny 79 26.1 41 5 26 26 SE 10 17 29.83 1010 10 16 0.00 0.00
3:53 pm 15:53 Sunny 80 26.7 41 5 25 25 SE 10 17 29.81 1010 10 16 0.00 0.00
4:53 pm 16:53 Sunny 82 27.8 43 6.1 25 25 ESE 10 17 29.80 1009 10 16 0.00 0.00
5:53 pm 17:53 Sunny 79 26.1 43 6.1 28 28 SE 16 26 29.79 1009 10 16 0.00 0.00
6:53 pm 18:53 Sunny 76 24.4 43 6.1 31 31 SE 18 30 29.79 1009 10 16 0.00 0.00
7:53 pm 19:53 Clear 72 22.2 45 7.2 38 38 SE 18 30 29.80 1009 10 16 0.00 0.00
8:53 pm 20:53 Clear 70 21.1 47 8.3 44 44 SE 17 28 29.82 1010 10 16 0.00 0.00
9:53 pm 21:53 Clear 68 20 47 8.3 47 47 SE 17 28 29.83 1010 10 16 0.00 0.00
10:53 pm 22:53 Clear 67 19.4 48 8.9 51 51 SE 17 28 29.83 1010 10 16 0.00 0.00
11:53 pm 23:53 Clear 65 18.3 48 8.9 54 54 SSE 18 30 29.83 1010 10 16 0.00 0.00

Powered by AerisWeather